Location: ??????
(56.0120°N, 39.1740°E)
Time: 06:09:24
(UTC+00:00)

Cosmos 1697 Rocket - Pass Details

Date: 14 April 2026
Orbit: 832 x 842 km, 71.0° (Epoch: 10 May)

Event Time Altitude Azimuth Distance (km) Brightness Sun altitude
Rises 22:25:40 0° 324° (NW) 3,407 6.4 -23.1°
Reaches altitude 10° 22:28:09 10° 322° (NW) 2,467 5.5 -23.0°
Maximum altitude 22:33:44 63° 242° (WSW) 933 2.6 -22.7°
Enters shadow 22:34:48 52° 194° (SSW) 1,032 2.7 -22.7°
